Regional Weather Roundup
Issued by NWS Spokane, WA

Home | Current Version | Previous Version | Text Only | Print | Product List | Glossary On
Versions: 1 2 3 4 5 6 7 8 9 10 11 12 13 14 15 16 17 18 19 20 21 22 23 24 25 26 27 28 29 30 31 32 33 34 35 36 37 38 39 40 41 42 43 44 45 46 47 48 49 50
000
NZUS01 KOTX 020610
RWROTX
EASTERN WASHINGTON/NORTHERN IDAHO ROUNDUP
NATIONAL WEATHER SERVICE, SPOKANE WA
1100 PM PDT SAT AUG 01 2015

Note: "fair" indicated few or no clouds below 12,000 feet with no
significant weather and/or obstructions to visibility.

...NORTHEAST WASHINGTON AND NORTHERN IDAHO PANHANDLE...

CITY           SKY/WX    TMP DP  RH WIND       PRES   REMARKS
SPOKANE INTL   MOCLDY    80  21  11 SW5       29.89S
SPOKANE DOWNTO MOCLDY    69  27  20 CALM      29.88R HAZE
COEUR D ALENE  PTCLDY    64  43  45 CALM      29.89S
DEER PARK      PTCLDY    59  27  29 N3        29.88S
SANDPOINT      CLEAR     59  37  44 CALM      29.88S
BONNERS FERRY  FAIR      68  34  28 CALM      29.89R

...SOUTHEAST WASHINGTON AND SOUTHERN IDAHO PANHANDLE...

CITY           SKY/WX    TMP DP  RH WIND       PRES   REMARKS
WALLA WALLA    CLEAR     82  27  13 E9        29.81F
PULLMAN/MOSCOW MOCLDY    67  28  23 NE6       29.94S HAZE
LEWISTON       PTCLDY    82  26  13 SW9       29.84S
LOWELL           N/A     68  52  56 N3        29.90R

...COLUMBIA BASIN...

CITY           SKY/WX    TMP DP  RH WIND       PRES   REMARKS
EPHRATA        CLEAR     85  31  14 N8        29.81S
MOSES LAKE     CLEAR     74  46  36 N3        29.82R
TRI CITIES     CLEAR     72  56  57 CALM      29.77R
HERMISTON      PTCLDY    72  42  34 SE7       29.76F
PENDLETON      PTCLDY    77  20  12 SE13      29.84S

...EAST SLOPES CASCADES...

CITY           SKY/WX    TMP DP  RH WIND       PRES   REMARKS
THE DALLES     CLEAR     87  47  24 NW13      29.77R
YAKIMA         CLEAR     85  37  18 NW7       29.84S
ELLENSBURG     CLEAR     75  33  21 NW13      29.89F
WENATCHEE      CLEAR     88  29  12 W16       29.84R
OMAK           CLOUDY    70  32  24 NW8       29.83R

...SOUTHERN BRITISH COLUMBIA...

CITY           SKY/WX    TMP DP  RH WIND       PRES   REMARKS
PENTICTON      CLEAR     66  36  32 NW3       29.86R
CRANBROOK      CLEAR     73  34  23 W8        29.94R

...WESTERN MONTANA...

CITY           SKY/WX    TMP DP  RH WIND       PRES   REMARKS
MISSOULA       CLEAR     70  38  31 CALM      29.97S

...NEIGHBORING CITIES...

CITY           SKY/WX    TMP DP  RH WIND       PRES   REMARKS
SEATTLE        PTCLDY    77  47  34 NE10      29.92F
CALGARY        MOCLDY    63  54  72 CALM      30.10R



USA.gov is the U.S. government's official web portal to all federal, state and local government web resources and services.